FloripaSat 1
1 44885U 19093G   25215.82955956  .00004219  00000-0  35309-3 0  9994
2 44885  97.8145 303.5606 0010406  21.4077 338.7579 14.98968142305024
RS-44
1 44909U 19096E   25215.43710818  .00000035  00000-0  93319-4 0  9995
2 44909  82.5215 190.8320 0217649 167.0140 193.6693 12.79742360261706
UPMSat 2
1 46276U 20061E   25215.29058114  .00096546  00000-0  59813-3 0  9998
2 46276  97.2388 291.7964 0001169 178.1225 182.0045 15.76775131274067
SALSAT
1 46495U 20068K   25215.67168445  .00006460  00000-0  27425-3 0  9999
2 46495  97.8641 196.2818 0010175 340.1776  19.9062 15.23416000266915
CubeSX-Sirius-HSE
1 47951U 21022V   25157.62701764  .07883385  25648-5  89537-3 0  9993
2 47951  97.4004  72.1904 0010275 223.9924 136.0557 16.36879307233400
CubeSX-HSE
1 47952U 21022W   25157.69972699  .06655353  25454-5  93288-3 0  9992
2 47952  97.3980  72.5414 0010307 219.3637 140.6911 16.34906352233436
GRBAlpha
1 47959U 21022AD  25160.45426279  .07940347  25506-5  90589-3 0  9995
2 47959  97.3899  75.6235 0011032 227.2558 132.7812 16.36806138232695
TUBIN
1 48900U 21059X   25215.79349449  .00044119  00000-0  44756-3 0  9990
2 48900  97.6773  29.7027 0002784  37.3948 322.7504 15.65111287228668
LEDSAT
1 49069U 21073D   25215.64046051  .00092085  00000-0  80727-3 0  9993
2 49069  97.3842 299.7644 0008751 224.6075 135.4483 15.68526208220040
CUTE
1 49263U 21088D   25215.17367616  .00015818  00000-0  28975-3 0  9992
2 49263  97.4480 293.0898 0007576  49.3605 310.8304 15.49378181212875
TeikyoSat 4
1 49396U 21102B   25215.83433840  .00001806  00000-0  12170-3 0  9994
2 49396  97.4079 252.2648 0010990 309.0399  50.9851 15.07842218204877
Z-Sat
1 49399U 21102E   25215.84973266  .00003703  00000-0  20232-3 0  9995
2 49399  97.3774 255.7231 0016183 272.0857  87.8522 15.14803620205344
KOSEN 1
1 49402U 21102H   25215.88175190  .00005815  00000-0  26529-3 0  9995
2 49402  97.3674 259.5947 0014235 241.8845 118.0952 15.20915720205695
HO-113
1 50466U 21131B   25215.82999351  .00000429  00000-0  14779-3 0  9996
2 50466  98.5102 304.9136 0003594 347.2360  12.8737 14.40868255189403
Foresail-1
1 52766U 22057AL  25176.64799660  .13857605  27391-5  25307-3 0  9992
2 52766  97.5832 331.2310 0012137 233.7199 258.4922 16.46795272172486
SNUGLITE 2
1 52899U 22065F   25215.40005335  .00001105  00000-0  22331-3 0  9994
2 52899  98.1757 356.8633 0006494 307.4323  52.6287 14.63320768164507
UmKA 1 (RS40S)
1 57172U 23091G   25215.86739451  .00004523  00000-0  23919-3 0  9996
2 57172  97.5548 270.9680 0015423 139.1198 221.1194 15.15876336115856
CubeBel-2 (EU11S)
1 57175U 23091K   25215.87852337  .00007587  00000-0  35281-3 0  9997
2 57175  97.5547 272.4744 0013064 144.6249 215.5855 15.20179420115951
VERONIKA
1 58261U 23174F   25215.80180036  .00588813  15025-3  13379-2 0  9994
2 58261  97.4037 306.1208 0009582 246.4960 113.5310 15.97434042 97402
ENSO
1 58470U 23185J   25215.85109571  .00062212  00000-0  71490-3 0  9991
2 58470  97.3692 292.9584 0006466 225.3901 134.6830 15.61817956 93641
EIRSAT-1
1 58472U 23185L   25215.70691562  .00229605  00000-0  10680-2 0  9997
2 58472  97.3611 295.9646 0007162 232.7761 127.2855 15.82734188 93830
SONATE-2
1 59112U 24043Q   25215.32973158  .00016812  00000-0  46108-3 0  9994
2 59112  97.5190 347.6849 0009511 278.7511  81.2656 15.37310398 78743
MO-122
1 60209U 24125G   25215.52484760  .00015793  00000-0  42513-3 0  9995
2 60209  97.2748  66.5762 0016380 302.1637  57.8018 15.37804451 60393
GRBBeta
1 60237U 24128C   25215.56201338  .00002883  00000-0  22184-3 0  9999
2 60237  61.9901 247.7945 0055430  69.1450 291.5564 15.03017464 58462
Curium One
1 60242U 24128H   25215.56934910  .00005178  00000-0  35820-3 0  9995
2 60242  61.9798 245.2162 0055450  65.4899 295.1960 15.05771477 58513
ROBUSTA-3A
1 60243U 24128J   25215.78864101  .00004225  00000-0  29932-3 0  9993
2 60243  61.9869 245.4634 0054566  63.1737 297.4920 15.05285603 58536
CatSat
1 60246U 24125J   25215.85985572  .00015392  00000-0  49599-3 0  9995
2 60246  97.2551  65.4745 0039845 256.3184 103.3620 15.31485496 58440
HYPERVIEW-1G (RS66S)
1 61772U 24199AP  25215.90470305  .00018994  00000-0  51699-3 0  9995
2 61772  97.3463  84.6996 0012546   3.4566 356.6764 15.37479862 85452
AO-123
1 61781U 24199AY  25215.89262763  .00005744  00000-0  20596-3 0  9991
2 61781  97.3481  82.9390 0015677   8.5906 351.5600 15.28995308 85331
ZIMSAT 2
1 61783U 24199BA  25215.87325085  .00036754  00000-0  79437-3 0  9991
2 61783  97.3430  85.7604 0011265   0.1697 359.9553 15.44350996 88675
HADES-R (SO-124)
1 62690U 25009CK  25215.45455275  .00039151  00000-0  12414-2 0  9994
2 62690  97.4064 296.1661 0002521 231.4066 128.6951 15.32592459 30547
HYDRA-T
1 62692U 25009CM  25215.16827089  .00040156  00000-0  12598-2 0  9990
2 62692  97.4068 295.9386 0002460 226.5351 133.5687 15.32927367 30505
JINJUSat 1B
1 63210U 25052A   25215.19492488  .00011415  00000-0  50733-3 0  9999
2 63210  97.4345 108.6442 0005958 119.7042 240.4788 15.21667880 21552
NUSHSAT 1
1 63211U 25052B   25215.44274598  .00011138  00000-0  49007-3 0  9992
2 63211  97.4336 108.9060 0005963 122.7183 237.4629 15.22016999 21592
TEVEL2-4
1 63213U 25052D   25215.20478078  .00011514  00000-0  51178-3 0  9997
2 63213  97.4249 108.4617 0004793 133.5146 226.6489 15.21666500 21557
TEVEL2-5
1 63214U 25052E   25215.66651139  .00010238  00000-0  45572-3 0  9992
2 63214  97.4250 108.9144 0004818 131.9287 228.2360 15.21646469 21622
TEVEL2-6
1 63215U 25052F   25215.27553335  .00011187  00000-0  49834-3 0  9998
2 63215  97.4250 108.5228 0004740 133.0179 227.1455 15.21599918 21561
TEVEL2-1
1 63217U 25052H   25215.22888232  .00011089  00000-0  49736-3 0  9994
2 63217  97.4233 108.3860 0004592 143.6046 216.5503 15.21365842 21551
TEVEL2-3
1 63218U 25052J   25215.42643092  .00009859  00000-0  44251-3 0  9999
2 63218  97.4229 108.5824 0004688 143.5738 216.5818 15.21372524 21589
TEVEL2-2
1 63219U 25052K   25215.22947224  .00011351  00000-0  50911-3 0  9992
2 63219  97.4229 108.3866 0004612 144.2834 215.8711 15.21361983 21554
TEVEL2-9
1 63237U 25052AD  25215.27297307  .00010500  00000-0  48834-3 0  9993
2 63237  97.4290 108.2943 0008285 169.7743 190.3662 15.20111015 21547
TEVEL2-7
1 63238U 25052AE  25215.27768374  .00010276  00000-0  47904-3 0  9998
2 63238  97.4295 108.2914 0008321 170.0269 190.1132 15.20037952 21547
TEVEL2-8
1 63239U 25052AF  25215.21499378  .00010124  00000-0  47242-3 0  9995
2 63239  97.4295 108.2210 0008402 169.8580 190.2826 15.20005244 21538
HYDRA-W
1 63490U 25052BL  25215.22486918  .00026630  00000-0  10426-2 0  9993
2 63490  97.4237 108.8724 0012043 167.9482 192.2047 15.25715406 21580
HADES-ICM (SO-125)
1 63492U 25052BN  25215.25765975  .00026050  00000-0  10381-2 0  9997
2 63492  97.4244 108.8396 0012115 172.4551 187.6872 15.25128074 21586
